RH
40 41 44 49 52 53 55 51 47 45 45 43 41 41 41 39 35 31 29 26 26 28 24 18 21 24 42 43 29 25 14 21 32 48 46 40 31 27 28 26 25 24 22
39 40 42 44 50 52 56 52 53 52 50 49 42 42 42 40 38 34 31 27 30 30 27 27 23 26 27 35 34 30 20 12 17 32 35 33 30 27 27 22 18 16 17
38 39 45 42 43 46 51 55 54 57 58 53 46 43 41 40 39 37 32 28 32 35 38 40 38 34 30 31 31 24 18 14 15 17 27 32 31 30 28 24 18 15 15
38 37 36 40 42 45 46 47 53 54 55 57 57 54 48 43 41 40 37 33 35 38 41 39 34 30 26 25 23 19 15 13 14 15 23 36 35 29 37 24 19 15 15
36 36 37 38 41 42 43 45 45 49 54 55 57 60 59 55 49 44 41 39 39 42 43 42 41 36 29 26 22 19 17 16 15 19 28 30 36 39 46 27 22 16 16
31 34 35 36 39 41 42 42 42 44 49 55 57 59 60 59 60 57 49 44 45 46 45 46 46 39 31 29 28 23 20 18 23 20 28 31 28 47 42 28 25 17 17
30 31 29 32 35 36 38 40 42 43 46 50 49 52 55 57 59 58 58 61 57 51 48 47 50 44 39 34 30 29 26 21 28 31 37 39 38 32 30 26 22 17 18
29 28 26 24 26 26 31 35 37 39 42 45 46 49 51 57 60 60 58 59 58 54 50 47 48 50 48 42 37 35 31 27 28 30 38 38 36 33 31 27 18 16 17
18 17 17 19 21 21 22 24 29 33 36 38 42 45 46 47 50 52 55 55 52 54 53 48 47 48 50 48 44 43 40 37 31 32 33 34 29 23 29 22 13 15 17
14 14 14 14 13 13 15 19 24 26 28 30 34 37 41 42 46 46 47 47 48 50 49 49 46 46 46 52 48 44 44 42 40 37 38 35 28 24 22 19 18 17 17
16 16 16 16 16 16 16 16 16 16 21 25 28 28 31 37 40 40 46 53 52 55 55 55 57 54 48 44 50 51 43 43 43 43 44 42 35 27 23 23 22 22 21
17 18 17 17 17 15 14 12 10 9 9 9 10 15 19 23 27 31 35 36 42 48 51 52 53 56 58 58 52 50 51 48 44 49 51 48 43 37 31 27 24 23 23
18 18 17 16 13 11 9 8 8 7 7 7 6 6 6 9 14 19 21 22 28 31 39 49 58 63 62 61 61 63 59 54 52 50 53 54 50 45 43 37 32 29 26
18 16 13 10 8 8 7 8 8 8 8 8 8 8 7 8 9 12 17 20 20 25 27 32 41 57 65 66 66 68 66 69 63 58 54 54 55 47 48 46 42 37 35
13 10 9 8 8 9 9 10 10 10 11 12 12 12 12 12 12 14 14 16 21 23 23 29 31 41 53 62 66 71 69 66 67 66 63 59 56 59 50 48 48 46 42
9 9 9 9 10 10 11 11 12 12 13 14 14 15 16 16 16 16 16 16 16 18 25 27 29 35 35 49 56 59 62 64 66 65 63 64 63 61 61 58 50 48 48
11 11 12 12 12 13 14 14 15 16 17 18 19 21 22 22 21 20 21 21 21 20 22 26 30 30 30 32 33 41 50 57 62 67 66 65 65 62 62 62 64 59 52
12 13 13 13 14 15 16 17 18 20 21 24 25 24 25 24 23 22 23 23 25 27 26 25 25 29 32 33 38 35 41 44 55 59 59 60 63 67 67 66 65 64 66
14 14 14 15 16 17 18 19 20 22 26 27 27 27 28 28 29 29 27 27 27 27 27 29 30 30 29 31 30 29 31 37 44 44 52 58 61 62 63 64 65 67 68
15 16 16 17 18 20 21 21 22 24 25 27 28 29 30 30 31 31 32 33 33 33 32 30 31 31 32 32 31 31 33 31 32 35 40 44 46 55 62 60 64 67 68
17 18 19 20 23 23 22 21 21 21 21 25 26 26 27 28 31 35 37 39 41 41 42 41 39 37 35 34 34 33 30 30 28 27 24 21 25 28 37 51 58 64 70
22 24 25 24 20 20 21 20 18 19 19 24 25 28 28 29 31 32 35 39 42 44 49 53 54 52 48 45 42 41 39 36 36 34 33 37 35 34 30 30 40 54 62
29 27 23 19 19 20 20 17 16 18 21 22 24 26 27 29 31 34 36 37 38 40 41 45 52 55 57 59 61 59 54 51 52 50 49 53 58 58 60 66 60 54 54
25 22 21 21 22 22 17 16 16 17 18 20 20 22 24 28 30 33 37 39 38 36 37 39 43 48 51 53 58 61 62 64 65 58 54 51 50 47 44 40 45 58 63
24 25 24 25 23 20 19 17 17 17 19 21 22 24 26 27 30 33 35 37 40 41 41 42 43 42 45 48 51 52 54 55 56 57 54 53 51 51 50 52 53 48 45
28 27 28 26 23 20 18 17 17 16 16 15 16 20 21 26 28 28 31 37 41 43 45 47 48 49 48 49 47 47 46 46 45 48 48 50 55 53 52 48 48 50 55